Вернуться в каталог

STARLINK-4045

АктивенСвязьVLEO
NORAD 53152·PAYLOAD·🇺🇸 United States

Запущен Jul 17, 2022 с Cape Canaveral Space Force Station

Loading…

Ближайшие Пролёты (ближайшие 24 часа)

TLE

СвежийSource: CelesTrak SupGP

Эпоха: Sep 14, 2026, 21:14 UTC

1 53152C 22083W   26257.88520833  .00478200  00000+0  56846-3 0  2579
2 53152  53.2120 342.2022 0001591  50.9943  65.8317 16.07489900    17

Отслеживайте STARLINK-4045 в реальном времени с AllMySat

Download on the App Store